Weerstation Grootegast  Weerstation Grootegast


15 daagse weersverwachting Oviedo (ES)

  • Overzicht
  • Per uur
  • 15 dagen
  • Extra
  • Vergelijk
  • Kaarten
  • Dagkaart
  • Meer »
  • Info
  • Statistieken
  • Directe link
    Temp 6h Neerslag Wind  
 08:41     17:47    Daglengte: 9:06 Vandaag
19:00
 
5
 08:42     17:47    Daglengte: 9:05 Morgen
01:00
6.1 mm
5
07:00
 
6
13:00
33.7 mm
6
19:00
25.9 mm
5
 08:43     17:47    Daglengte: 9:04 Zondag 06 Dec
01:00
40.8 mm
6
07:00
87.0 mm
5
13:00
99.0 mm
5
19:00
90.2 mm
2
 08:44     17:47    Daglengte: 9:03 Maandag 07 Dec
01:00
103.6 mm
2
07:00
118.3 mm
3
13:00
212.1 mm
7
Locatie info
Region: Principado de Asturias
Latitude: 43.3627°N
Longitude: -5.8477°E
237 masl
Postcode: 33003
Temp/Neerslag /Baro Onweer/Dauwpunt
    Temp Baro 1h Neerslag Dauwpunt Wind UV Bewolking  
 08:41     17:47    Daglengte: 9:06 Vandaag
16:00
Voelt als: 2.4°
994.7 hPa
48%
2.1°
6
Windvlaag: 1.1 m/s
81%
17:00
Voelt als: 1.9°
995.5 hPa
25%
2.5°
6
Windvlaag: 1.4 m/s
80%
18:00
Voelt als: 2.0°
995.9 hPa
32%
2.8°
5
Windvlaag: 1.1 m/s
85%
19:00
Voelt als: 1.8°
996.2 hPa
32%
2.5°
5
Windvlaag: 1.5 m/s
85%
20:00
Voelt als: 1.6°
996.8 hPa
73%
2.2°
5
Windvlaag: 2 m/s
82%
21:00
Voelt als: 1.7°
997.1 hPa 3.3 mm
77%
2.8°
5
Windvlaag: 2.1 m/s
85%
22:00
Voelt als: 1.6°
997.8 hPa 2.8 mm
80%
3.6°
5
Windvlaag: 1.2 m/s
79%
23:00
Voelt als: 1.2°
998.3 hPa
24%
3.0°
5
Windvlaag: 1.1 m/s
74%
 08:42     17:47    Daglengte: 9:05 Morgen
00:00
Voelt als: 1.3°
998.3 hPa
15%
2.7°
5
Windvlaag: 1.7 m/s
82%
01:00
Voelt als: 1.0°
998.5 hPa
50%
2.3°
5
Windvlaag: 2.2 m/s
75%
02:00
Voelt als: 0.9°
998.4 hPa
17%
2.3°
6
Windvlaag: 2.5 m/s
88%
03:00
Voelt als: 1.6°
998.5 hPa
38%
2.4°
5
Windvlaag: 1.8 m/s
86%
04:00
Voelt als: 1.6°
998.8 hPa
41%
2.6°
5
Windvlaag: 2 m/s
78%
05:00
Voelt als: 1.5°
998.9 hPa
78%
2.6°
5
Windvlaag: 2.2 m/s
54%
06:00
Voelt als: 1.2°
999.1 hPa
28%
2.6°
5
Windvlaag: 2.6 m/s
77%
07:00
Voelt als: 1.2°
999.3 hPa
72%
2.6°
6
Windvlaag: 3.1 m/s
85%
08:00
Voelt als: 1.7°
999.5 hPa 4.8 mm
82%
3.4°
7
Windvlaag: 3.4 m/s
85%
09:00
Voelt als: 1.8°
1000.1 hPa 4.2 mm
82%
3.9°
6
Windvlaag: 2.5 m/s
89%
10:00
Voelt als: 1.6°
1001.0 hPa 7.6 mm
82%
3.8°
6
Windvlaag: 2.8 m/s
90%
11:00
Voelt als: 2.5°
1001.8 hPa 5.5 mm
82%
4.1°
6
Windvlaag: 2.4 m/s
90%
12:00
Voelt als: 2.7°
1002.5 hPa 5.9 mm
82%
4.3°
6
Windvlaag: 2.5 m/s
90%
13:00
Voelt als: 3.7°
1002.7 hPa 5.6 mm
82%
4.5°
6
Windvlaag: 3.2 m/s
83%
14:00
Voelt als: 4.1°
1002.9 hPa 5.8 mm
82%
5.0°
6
Windvlaag: 2.3 m/s
90%
15:00
Voelt als: 3.8°
1003.3 hPa 5.8 mm
82%
4.8°
6
Windvlaag: 0.8 m/s
81%
16:00
Voelt als: 3.5°
1003.6 hPa 5.8 mm
82%
4.5°
6
Windvlaag: 0.4 m/s
87%
17:00
Voelt als: 3.4°
1004.3 hPa
81%
4.4°
6
Windvlaag: 1.2 m/s
80%
18:00
Voelt als: 2.7°
1004.6 hPa
78%
3.9°
6
Windvlaag: 1.8 m/s
81%
19:00
Voelt als: 2.8°
1004.9 hPa 8.4 mm
78%
3.5°
5
Windvlaag: 2.1 m/s
66%
20:00
Voelt als: 2.6°
1005.2 hPa 6.3 mm
82%
3.6°
6
Windvlaag: 1.3 m/s
87%
21:00
Voelt als: 2.7°
1005.8 hPa 6.1 mm
82%
4.1°
6
Windvlaag: 1.3 m/s
78%
22:00
Voelt als: 2.8°
1006.1 hPa 6.2 mm
82%
4.2°
6
Windvlaag: 2.4 m/s
80%
23:00
Voelt als: 2.6°
1006.3 hPa 6.7 mm
82%
4.2°
6
Windvlaag: 2.6 m/s
87%
 08:43     17:47    Daglengte: 9:04 Zondag 06 Dec
00:00
Voelt als: 2.6°
1006.5 hPa 7.5 mm
82%
4.4°
6
Windvlaag: 1 m/s
90%
01:00
Voelt als: 3.1°
1006.8 hPa 8.0 mm
82%
4.8°
6
Windvlaag: 1.7 m/s
87%
02:00
Voelt als: 3.4°
1007.0 hPa 11.3 mm
82%
5.0°
6
Windvlaag: 1.3 m/s
90%
03:00
Voelt als: 3.1°
1007.0 hPa 12.5 mm
44%
4.7°
5
Windvlaag: 1.2 m/s
87%
04:00
Voelt als: 3.1°
1007.2 hPa 14.5 mm
78%
4.9°
6
Windvlaag: 1.3 m/s
83%
05:00
Voelt als: 3.5°
1007.4 hPa 15.5 mm
37%
5.0°
5
Windvlaag: 1.5 m/s
80%
06:00
Voelt als: 3.6°
1007.7 hPa 16.4 mm
75%
5.2°
5
Windvlaag: 0.9 m/s
79%
07:00
Voelt als: 3.3°
1008.0 hPa 16.7 mm
76%
5.2°
5
Windvlaag: 0.9 m/s
74%
08:00
Voelt als: 3.8°
1008.4 hPa 16.7 mm
78%
5.3°
5
Windvlaag: 1.2 m/s
85%
09:00
Voelt als: 3.8°
1008.8 hPa 18.0 mm
77%
5.3°
4
Windvlaag: 0.1 m/s
84%
10:00
Voelt als: 4.1°
1009.5 hPa 18.1 mm
94%
5.5°
5
Windvlaag: 0.7 m/s
92%
11:00
Voelt als: 4.5°
1009.9 hPa 18.8 mm
95%
5.7°
5
Windvlaag: 0.7 m/s
95%
12:00
Voelt als: 4.5°
1010.0 hPa 13.6 mm
100%
4.9°
5
Windvlaag: 1.7 m/s
95%
13:00
Voelt als: 4.9°
1009.6 hPa 13.7 mm
100%
5.7°
5
Windvlaag: 2.1 m/s
97%
14:00
Voelt als: 4.8°
1009.3 hPa 14.0 mm
100%
5.3°
5
Windvlaag: 2.2 m/s
96%
15:00
Voelt als: 5.1°
1009.1 hPa 14.1 mm
100%
5.5°
4
Windvlaag: 1.6 m/s
99%
16:00
Voelt als: 5.1°
1009.0 hPa 14.0 mm
100%
5.5°
4
Windvlaag: 1.3 m/s
96%
17:00
Voelt als: 4.9°
1009.1 hPa 14.1 mm
100%
5.3°
4
Windvlaag: 1.1 m/s
93%
18:00
Voelt als: 4.7°
1009.3 hPa 19.6 mm
100%
4.9°
3
Windvlaag: 1.4 m/s
98%
19:00
Voelt als: 4.6°
1009.6 hPa 14.5 mm
100%
4.7°
2
Windvlaag: 1.8 m/s
98%
20:00
Voelt als: 4.4°
1009.8 hPa 14.8 mm
100%
4.6°
3
Windvlaag: 2.1 m/s
99%
21:00
Voelt als: 4.5°
1009.7 hPa 14.8 mm
100%
4.6°
2
Windvlaag: 2 m/s
100%
22:00
Voelt als: 4.6°
1009.5 hPa 15.1 mm
100%
4.7°
2
Windvlaag: 2 m/s
98%
23:00
Voelt als: 4.5°
1009.0 hPa 14.8 mm
100%
4.7°
2
Windvlaag: 2.1 m/s
98%
 08:44     17:47    Daglengte: 9:03 Maandag 07 Dec
00:00
Voelt als: 4.4°
1008.3 hPa 22.2 mm
100%
4.7°
2
Windvlaag: 2 m/s
98%
01:00
Voelt als: 4.3°
1007.5 hPa 21.9 mm
100%
4.6°
2
Windvlaag: 1.9 m/s
98%
02:00
Voelt als: 4.3°
1006.7 hPa 22.7 mm
100%
4.6°
2
Windvlaag: 1.7 m/s
100%
03:00
Voelt als: 5.4°
1006.5 hPa 22.8 mm
100%
5.0°
2
Windvlaag: 1.5 m/s
99%
04:00
Voelt als: 4.9°
1006.2 hPa 21.4 mm
100%
5.2°
3
Windvlaag: 1.7 m/s
99%
05:00
Voelt als: 4.9°
1005.9 hPa 15.0 mm
100%
5.4°
4
Windvlaag: 1.9 m/s
98%
06:00
Voelt als: 6.0°
1005.5 hPa 15.2 mm
100%
6.4°
4
Windvlaag: 1.9 m/s
98%
07:00
Voelt als: 6.7°
1005.2 hPa 21.1 mm
100%
7.0°
3
Windvlaag: 2 m/s
99%
08:00
Voelt als: 6.8°
1005.5 hPa 34.5 mm
100%
7.2°
4
Windvlaag: 12.3 m/s
94%
09:00
Voelt als: 6.5°
1005.6 hPa 34.7 mm
100%
6.9°
5
Windvlaag: 13.5 m/s
93%
10:00
Voelt als: 6.4°
1005.7 hPa 34.8 mm
100%
6.8°
5
Windvlaag: 17.4 m/s
90% warningclass
11:00
Voelt als: 6.3°
1006.2 hPa 35.4 mm
100%
6.8°
5
Windvlaag: 15.3 m/s
87%
12:00
Voelt als: 6.3°
1006.4 hPa 37.0 mm
100%
6.7°
6
Windvlaag: 15.7 m/s
83%
13:00
Voelt als: 6.1°
1006.6 hPa 35.8 mm
100%
6.5°
7
Windvlaag: 2.3 m/s
79%
Temp/Neerslag /Baro Onweer/Dauwpunt
    Temp Baro Neerslag Dauwpunt Wind Bewolking  
 08:41     17:47    Daglengte: 9:06 Vandaag
16:00
Voelt als: 2.4°
994.7 hPa   2.1°
6
81%
19:00
Voelt als: 1.8°
996.2 hPa   2.5°
5
85%
22:00
Voelt als: 1.6°
997.8 hPa 6.1 mm 3.6°
5
79%
 08:42     17:47    Daglengte: 9:05 Morgen
01:00
Voelt als: 1.0°
998.5 hPa   2.3°
5
75%
04:00
Voelt als: 1.6°
998.8 hPa   2.6°
5
78%
07:00
Voelt als: 1.2°
999.3 hPa   2.6°
6
85%
10:00
Voelt als: 1.6°
1001.0 hPa 16.7 mm 3.8°
6
90%
13:00
Voelt als: 3.7°
1002.7 hPa 17.0 mm 4.5°
6
83%
16:00
Voelt als: 3.5°
1003.6 hPa 17.5 mm 4.5°
6
87%
19:00
Voelt als: 2.8°
1004.9 hPa 8.4 mm 3.5°
5
66%
22:00
Voelt als: 2.8°
1006.1 hPa 18.6 mm 4.2°
6
80%
 08:43     17:47    Daglengte: 9:04 Zondag 06 Dec
01:00
Voelt als: 3.1°
1006.8 hPa 22.2 mm 4.8°
6
87%
04:00
Voelt als: 3.1°
1007.2 hPa 38.3 mm 4.9°
6
83%
07:00
Voelt als: 3.3°
1008.0 hPa 48.6 mm 5.2°
5
74%
10:00
Voelt als: 4.1°
1009.5 hPa 52.8 mm 5.5°
5
92%
13:00
Voelt als: 4.9°
1009.6 hPa 46.2 mm 5.7°
5
97%
16:00
Voelt als: 5.1°
1009.0 hPa 42.1 mm 5.5°
4
96%
19:00
Voelt als: 4.6°
1009.6 hPa 48.1 mm 4.7°
2
98%
22:00
Voelt als: 4.6°
1009.5 hPa 44.8 mm 4.7°
2
98%
 08:44     17:47    Daglengte: 9:03 Maandag 07 Dec
01:00
Voelt als: 4.3°
1007.5 hPa 58.8 mm 4.6°
2
98%
04:00
Voelt als: 4.9°
1006.2 hPa 66.9 mm 5.2°
3
99%
07:00
Voelt als: 6.7°
1005.2 hPa 51.3 mm 7.0°
3
99%
10:00
Voelt als: 6.4°
1005.7 hPa 103.9 mm 6.8°
5
90% warningclass
13:00
Voelt als: 6.1°
1006.6 hPa 108.2 mm 6.5°
7
79%
16:00
Voelt als: 4.1°
1005.0 hPa 82.8 mm 4.7°
5
55%
19:00
Voelt als: 3.6°
1004.9 hPa 88.0 mm 4.1°
5
55%
22:00
Voelt als: 3.6°
1004.4 hPa 90.4 mm 4.4°
6
72%
 08:45     17:47    Daglengte: 9:02 Dinsdag 08 Dec
01:00
Voelt als: 3.7°
1003.9 hPa 93.3 mm 4.9°
6
88%
04:00
Voelt als: 3.9°
1006.6 hPa 96.3 mm 5.6°
6
86%
07:00
Voelt als: 4.2°
1009.4 hPa 99.9 mm 6.6°
5
85%
10:00
Voelt als: 4.6°
1011.5 hPa 104.2 mm 6.0°
4
87%
13:00
Voelt als: 5.0°
1013.5 hPa 107.4 mm 5.3°
3
90%
16:00
Voelt als: 4.2°
1014.5 hPa 109.0 mm 5.4°
4
77%
19:00
Voelt als: 3.5°
1015.6 hPa 111.3 mm 5.5°
5
65%
22:00
Voelt als: 3.5°
1017.2 hPa 115.5 mm 5.0°
4
78%
 08:46     17:47    Daglengte: 9:01 Woensdag 09 Dec
01:00
Voelt als: 3.6°
1018.8 hPa 116.9 mm 4.4°
3
92%
04:00
Voelt als: 3.4°
1019.1 hPa 117.8 mm 3.9°
2
58%
07:00
Voelt als: 3.1°
1019.4 hPa 118.2 mm 3.3°
2
24%
10:00
Voelt als: 4.4°
1020.2 hPa 118.2 mm 3.8°
3
30%
13:00
Voelt als: 6.6°
1020.8 hPa 118.2 mm 4.6°
3
36%
16:00
Voelt als: 5.4°
1020.2 hPa 118.2 mm 4.4°
2
62%
19:00
Voelt als: 4.0°
1019.7 hPa 119.2 mm 3.9°
2
89%
22:00
Voelt als: 3.9°
1018.5 hPa 120.3 mm 3.9°
2
90%
 08:47     17:47    Daglengte: 9:00 Donderdag 10 Dec
01:00
Voelt als: 3.9°
1017.1 hPa 120.8 mm 3.7°
3
92%
04:00
Voelt als: 5.1°
1015.3 hPa 124.7 mm 5.1°
3
91%
07:00
Voelt als: 6.3°
1013.7 hPa 129.9 mm 6.4°
3
91%
10:00
Voelt als: 8.0°
1013.9 hPa 131.3 mm 7.7°
3
91%
13:00
11°
1014.1 hPa 132.9 mm 9.1°
3
92%
16:00
11°
1013.5 hPa 133.6 mm 9.1°
3
92%
19:00
11°
1013.1 hPa 133.7 mm 8.9°
3
92%
22:00
11°
1012.8 hPa 134.2 mm 8.8°
3
92%
 08:48     17:47    Daglengte: 8:59 Vrijdag 11 Dec
01:00
11°
1012.4 hPa 134.5 mm 8.6°
2
92%
04:00
11°
1012.6 hPa 135.4 mm 9.8°
2
92%
07:00
12°
1012.8 hPa 141.0 mm 11.0°
2
92%
10:00
14°
1013.3 hPa 143.4 mm 12.3°
1
91%
13:00
16°
1013.8 hPa 287.8 mm 13.5°
1
90%
19:00
13°
1013.7 hPa 288.9 mm 8.9°
2
87%
 08:48     17:47    Daglengte: 8:59 Zaterdag 12 Dec
01:00
Voelt als: 5.3°
1014.6 hPa 290.1 mm 5.0°
3
63%
07:00
Voelt als: 6.9°
1014.3 hPa 296.6 mm 4.7°
2
51%
13:00
13°
1015.5 hPa 305.9 mm 10.4°
2
90%
19:00
11°
1015.1 hPa 330.3 mm 7.6°
3
40%
 08:49     17:47    Daglengte: 8:58 Zondag 13 Dec
01:00
Voelt als: 8.8°
1018.0 hPa 350.6 mm 7.8°
0
90%
07:00
Voelt als: 2.9°
1017.7 hPa 354.2 mm 4.4°
3
38%
13:00
13°
1019.7 hPa 354.3 mm 8.4°
1
30%
19:00
11°
1017.9 hPa 354.3 mm 6.4°
4
1%
 08:50     17:48    Daglengte: 8:58 Maandag 14 Dec
01:00
Voelt als: 3.3°
1016.3 hPa 354.3 mm 1.9°
3
0%
07:00
Voelt als: 7.2°
1013.7 hPa 355.1 mm 5.1°
3
1%
13:00
12°
1019.0 hPa 0.8 mm 9.5°
1
77%
19:00
10°
1020.1 hPa 0.7 mm 8.5°
1
80%
 08:51     17:48    Daglengte: 8:57 Dinsdag 15 Dec
01:00
Voelt als: 8.4°
1021.9 hPa 1.3 mm 7.2°
2
78%
07:00
Voelt als: 8.1°
1022.1 hPa 1.1 mm 6.8°
2
73%
13:00
12°
1022.8 hPa 0.9 mm 9.1°
1
75%
19:00
10°
1022.9 hPa 0.8 mm 8.1°
1
80%
 08:51     17:48    Daglengte: 8:57 Woensdag 16 Dec
01:00
Voelt als: 8.4°
1023.7 hPa 0.9 mm 7.1°
2
74%
07:00
Voelt als: 8.0°
1024.0 hPa 1.2 mm 6.7°
2
68%
13:00
12°
1025.7 hPa 1.3 mm 8.9°
1
76%
19:00
Voelt als: 9.2°
1026.5 hPa 0.8 mm 7.5°
0
70%
 08:52     17:49    Daglengte: 8:57 Donderdag 17 Dec
01:00
Voelt als: 8.5°
1027.1 hPa 0.6 mm 6.3°
1
77%
07:00
1025.8 hPa 0.7 mm 6.1°
1
76%
13:00
11°
1025.4 hPa 1.5 mm 8.7°
0
77%
19:00
10°
Voelt als: 9.6°
1025.3 hPa 1.5 mm 8.2°
0
80%
 08:53     17:49    Daglengte: 8:56 Vrijdag 18 Dec
01:00
1026.5 hPa 0.4 mm 6.6°
1
79%
07:00
1025.6 hPa 0.9 mm 6.1°
1
72%
13:00
11°
1025.1 hPa 1.4 mm 8.2°
0
73%
19:00
1024.7 hPa 0.8 mm 7.4°
0
72%
 08:53     17:49    Daglengte: 8:56 Zaterdag 19 Dec
01:00
Voelt als: 7.8°
1025.1 hPa 0.5 mm 5.8°
1
71%
07:00
Voelt als: 7.3°
1023.9 hPa 0.5 mm 5.0°
1
66%
13:00
11°
1023.4 hPa 0.8 mm 7.8°
1
69%
  CAPE Lifted Index Hail Supercell Tornado SRH 3km CL BTM PRES CL TOP PRES Swiss DWD icon SMHI TS
 08:41     17:47    Daglengte: 9:06 Vandaag
16:00 0 J/kg 0.2 K 0 % 0 % 0 % 0 m²/s² 0 0 2.24 3
17:00 0 J/kg -1.3 K 0 % 0 % 0 % 0 m²/s² 0 0 1.7 3
18:00 99 J/kg -1.0 K 0 % 0 % 0 % 0 m²/s² 0 0 0.23 3
19:00 0 J/kg -1.1 K 0 % 0 % 0 % 0 m²/s² 0 0 -0.14 3
20:00 1 J/kg 1.0 K 0 % 0 % 0 % 0 m²/s² 0 0 1.69 3
21:00 148 J/kg -0.6 K 0 % 0 % 0 % 0 m²/s² 0 0 3.45 80
22:00 339 J/kg -1.9 K 0 % 0 % 0 % 0 m²/s² 0 0 0.77 80
23:00 0 J/kg 0.3 K 0 % 0 % 0 % 0 m²/s² 0 0 1.26 3
 08:42     17:47    Daglengte: 9:05 Morgen
00:00 196 J/kg -2.0 K 0 % 0 % 0 % 0 m²/s² 0 0 -0.8 3
01:00 0 J/kg -1.2 K 0 % 0 % 0 % 0 m²/s² 0 0 -0.78 3
02:00 30 J/kg -0.6 K 0 % 0 % 0 % 0 m²/s² 0 0 -0.06 3
03:00 277 J/kg -1.9 K 0 % 0 % 0 % 0 m²/s² 0 0 1.25 3
04:00 351 J/kg -2.7 K 0 % 0 % 0 % 0 m²/s² 0 0 -1.86 3
05:00 179 J/kg -1.2 K 0 % 0 % 0 % 0 m²/s² 0 0 1.35 3
06:00 1 J/kg 0.7 K 0 % 0 % 0 % 0 m²/s² 0 0 3.55 3
07:00 0 J/kg 0.6 K 0 % 0 % 0 % 0 m²/s² 0 0 2.58 3
08:00 0 J/kg -0.8 K 0 % 0 % 0 % 0 m²/s² 0 0 -0.32 80
09:00 44 J/kg 0.5 K 0 % 0 % 0 % 0 m²/s² 0 0 0.98 61
10:00 0 J/kg -1.1 K 0 % 0 % 0 % 0 m²/s² 0 0 -0.71 61
11:00 306 J/kg -1.2 K 0 % 0 % 0 % 0 m²/s² 0 0 -0.63 61
12:00 364 J/kg -1.3 K 0 % 0 % 0 % 0 m²/s² 0 0 -0.37 80
13:00 326 J/kg -1.2 K 0 % 0 % 0 % 0 m²/s² 0 0 1.2 80
14:00 201 J/kg -0.1 K 0 % 0 % 0 % 0 m²/s² 0 0 1.73 80
15:00 188 J/kg 0.3 K 0 % 0 % 0 % 0 m²/s² 0 0 0.81 80
16:00 273 J/kg 0.0 K 0 % 0 % 0 % 0 m²/s² 0 0 1.2 80
17:00 190 J/kg 1.4 K 0 % 0 % 0 % 0 m²/s² 0 0 3.23 3
18:00 0 J/kg 1.8 K 0 % 0 % 0 % 0 m²/s² 0 0 2.25 3
19:00 80 J/kg 3.0 K 0 % 0 % 0 % 0 m²/s² 0 0 4.38 3
20:00 89 J/kg 2.3 K 0 % 0 % 0 % 0 m²/s² 0 0 5.54 3
21:00 100 J/kg 1.1 K 0 % 0 % 0 % 0 m²/s² 0 0 2.87 80
22:00 90 J/kg -0.3 K 0 % 0 % 0 % 0 m²/s² 0 0 0.48 3
23:00 27 J/kg 0.2 K 0 % 0 % 0 % 0 m²/s² 0 0 0.74 80
 08:43     17:47    Daglengte: 9:04 Zondag 06 Dec
00:00 1 J/kg 0.0 K 0 % 0 % 0 % 0 m²/s² 0 0 0.42 80
01:00 151 J/kg 0.0 K 0 % 0 % 0 % 0 m²/s² 0 0 1.35 3
02:00 185 J/kg 0.0 K 0 % 0 % 0 % 0 m²/s² 0 0 0.51 80
03:00 2 J/kg 2.7 K 0 % 0 % 0 % 0 m²/s² 0 0 3 3
04:00 78 J/kg 0.4 K 0 % 0 % 0 % 0 m²/s² 0 0 0.76 2
05:00 156 J/kg 0.8 K 0 % 0 % 0 % 0 m²/s² 0 0 1.31 2
06:00 139 J/kg 1.1 K 0 % 0 % 0 % 0 m²/s² 0 0 1.58 2
07:00 63 J/kg 2.3 K 0 % 0 % 0 % 0 m²/s² 0 0 2.84 2
08:00 97 J/kg 2.0 K 0 % 0 % 0 % 0 m²/s² 0 0 2.39 3
09:00 40 J/kg 1.7 K 0 % 0 % 0 % 0 m²/s² 0 0 2.09 2
10:00 139 J/kg 1.8 K 0 % 0 % 0 % 0 m²/s² 0 0 2.88 3
11:00 131 J/kg 2.4 K 0 % 0 % 0 % 0 m²/s² 0 0 2.82 3
12:00 183 J/kg 3.2 K 0 % 0 % 0 % 0 m²/s² 0 0 4.1 61
13:00 167 J/kg 3.8 K 0 % 0 % 0 % 0 m²/s² 0 0 5.21 61
14:00 150 J/kg 4.0 K 0 % 0 % 0 % 0 m²/s² 0 0 6.67 61
15:00 117 J/kg 4.4 K 0 % 0 % 0 % 0 m²/s² 0 0 4.91 61
16:00 123 J/kg 3.9 K 0 % 0 % 0 % 0 m²/s² 0 0 6.96 61
17:00 66 J/kg 4.8 K 0 % 0 % 0 % 0 m²/s² 0 0 8.88 61
18:00 38 J/kg 5.1 K 0 % 0 % 0 % 0 m²/s² 0 0 10.14 61
19:00 32 J/kg 4.5 K 0 % 0 % 0 % 0 m²/s² 0 0 8.94 61
20:00 14 J/kg 5.0 K 0 % 0 % 0 % 0 m²/s² 0 0 8.84 63
21:00 23 J/kg 5.2 K 0 % 0 % 0 % 0 m²/s² 0 0 8.65 63
22:00 9 J/kg 4.5 K 0 % 0 % 0 % 0 m²/s² 0 0 7.8 63
23:00 12 J/kg 4.4 K 0 % 0 % 0 % 0 m²/s² 0 0 7.52 61
 08:44     17:47    Daglengte: 9:03 Maandag 07 Dec
00:00 0 J/kg 5.0 K 0 % 0 % 0 % 0 m²/s² 0 0 7.37 63
01:00 0 J/kg 5.6 K 0 % 0 % 0 % 0 m²/s² 0 0 7.46 63
02:00 0 J/kg 6.3 K 0 % 0 % 0 % 0 m²/s² 0 0 7.71 63
03:00 0 J/kg 6.2 K 0 % 0 % 0 % 0 m²/s² 0 0 7.16 63
04:00 0 J/kg 6.1 K 0 % 0 % 0 % 0 m²/s² 0 0 6.97 61
05:00 0 J/kg 6.6 K 0 % 0 % 0 % 0 m²/s² 0 0 7.53 80
06:00 0 J/kg 7.3 K 0 % 0 % 0 % 0 m²/s² 0 0 7.84 80
07:00 0 J/kg 6.4 K 0 % 0 % 0 % 0 m²/s² 0 0 6.76 80
08:00 0 J/kg 5.3 K 0 % 0 % 0 % 0 m²/s² 0 0 5.66 80
09:00 0 J/kg 4.4 K 0 % 0 % 0 % 0 m²/s² 0 0 4.73 80
10:00 0 J/kg 2.8 K 0 % 0 % 0 % 0 m²/s² 0 0 3.16 61
11:00 42 J/kg 2.7 K 0 % 0 % 0 % 0 m²/s² 0 0 3.06 80
12:00 104 J/kg 3.1 K 0 % 0 % 0 % 0 m²/s² 0 0 3.7 63
13:00 136 J/kg 3.2 K 0 % 0 % 0 % 0 m²/s² 0 0 3.86 61
Temp Baro Wind Neerslag
  EWN Forecast EWN WRFDA DWD ICON FMI HIRLAM MET Norway GFS
 08:41     17:47    Daglengte: 9:06 Vandaag
16:00 6.3° 994.7 hPa 6.2 m/s 0.0 mm 3.7° 992.6 hPa 6.5 m/s 8.1 mm 7.2° 995.3 hPa 6.0 m/s -1.1 mm 8.0° 993.6 hPa 8.6 m/s 0.0 mm 6.2° 994.9 hPa 5.9 m/s 5.3° 994.7 hPa 2.6 m/s
19:00 5.4° 996.2 hPa 4.9 m/s 0.0 mm 4.9° 992.9 hPa 7.4 m/s 31.3 mm 5.6° 996.1 hPa 4.4 m/s 0.0 mm 6.9° 995.3 hPa 6.8 m/s 0.0 mm 4.3° 996.8 hPa 4.4 m/s 4.4° 995.8 hPa 2.5 m/s
22:00 5.0° 997.8 hPa 4.6 m/s 6.1 mm 5.5° 995.2 hPa 4.4 m/s 44.6 mm 5.1° 997.8 hPa 3.4 m/s 0.3 mm 5.6° 997.5 hPa 5.6 m/s 0.0 mm 3.5° 998.5 hPa 4.5 m/s 4.8° 998.1 hPa 3.2 m/s
 08:42     17:47    Daglengte: 9:05 Morgen
01:00 4.9° 998.5 hPa 5.2 m/s 0.0 mm 4.3° 995.9 hPa 7.1 m/s 54.8 mm 5.2° 997.7 hPa 3.5 m/s 0.0 mm 5.5° 999.1 hPa 6.2 m/s 0.0 mm 4.0° 999.0 hPa 5.3 m/s 3.9° 998.8 hPa 2.8 m/s
04:00 5.3° 998.8 hPa 5.1 m/s 0.0 mm 6.1° 996.1 hPa 5.9 m/s 61.9 mm 5.6° 999.0 hPa 4.5 m/s 0.0 mm 6.4° 998.9 hPa 7.2 m/s 0.0 mm 4.0° 999.5 hPa 4.9 m/s 3.8° 999.5 hPa 2.9 m/s
07:00 5.3° 999.3 hPa 6.1 m/s 0.0 mm 4.2° 996.7 hPa 8.4 m/s 66.2 mm 6.0° 999.4 hPa 4.7 m/s 0.1 mm 6.6° 999.3 hPa 7.0 m/s 0.0 mm 4.6° 1000.1 hPa 6.0 m/s 5.1° 1000.3 hPa 3.2 m/s
10:00 5.5° 1001.0 hPa 6.0 m/s 16.7 mm 5.3° 998.4 hPa 7.0 m/s 81.1 mm 5.1° 1001.5 hPa 4.5 m/s 3.1 mm 8.5° 1000.6 hPa 7.9 m/s 0.0 mm 4.6° 1002.3 hPa 5.5 m/s 6.0° 1001.3 hPa 3.8 m/s
13:00 7.2° 1002.7 hPa 5.9 m/s 17.0 mm 8.1° 1001.0 hPa 9.2 m/s 105.2 mm 6.6° 1003.4 hPa 3.8 m/s 2.3 mm 9.5° 1002.2 hPa 7.4 m/s 0.0 mm 6.6° 1003.7 hPa 5.7 m/s 6.6° 1002.6 hPa 3.9 m/s
16:00 7.0° 1003.6 hPa 5.9 m/s 17.5 mm 7.1° 1001.5 hPa 6.2 m/s 111.4 mm 6.9° 1004.5 hPa 4.7 m/s 1.2 mm 8.2° 1003.1 hPa 8.0 m/s 0.0 mm 6.1° 1004.5 hPa 5.9 m/s 6.0° 1003.4 hPa 3.8 m/s
19:00 6.3° 1004.9 hPa 5.3 m/s 8.4 mm 6.0° 1003.0 hPa 7.4 m/s 118.6 mm 6.3° 1006.2 hPa 4.4 m/s 0.1 mm 7.2° 1004.3 hPa 7.9 m/s 0.0 mm 5.5° 1005.7 hPa 5.0 m/s 4.9° 1005.8 hPa 3.4 m/s
22:00 6.4° 1006.1 hPa 5.8 m/s 18.6 mm 6.1° 1004.1 hPa 7.7 m/s 123.5 mm 6.4° 1007.3 hPa 4.5 m/s 0.5 mm 7.7° 1005.3 hPa 8.6 m/s 0.0 mm 5.5° 1007.2 hPa 5.5 m/s 5.1° 1007.3 hPa 3.7 m/s
 08:43     17:47    Daglengte: 9:04 Zondag 06 Dec
01:00 6.6° 1006.8 hPa 5.6 m/s 22.2 mm 6.8° 1004.2 hPa 7.2 m/s 145.7 mm 6.0° 1008.1 hPa 4.1 m/s 0.6 mm 8.3° 1005.8 hPa 7.5 m/s 0.0 mm 5.6° 1008.0 hPa 5.3 m/s 4.3° 1007.8 hPa 2.8 m/s
04:00 6.6° 1007.2 hPa 5.5 m/s 38.3 mm 6.3° 1005.6 hPa 5.1 m/s 183.5 mm 6.3° 1008.4 hPa 4.8 m/s 0.1 mm 9.0° 1006.2 hPa 6.8 m/s 0.0 mm 5.9° 1008.2 hPa 5.5 m/s 5.5° 1007.8 hPa 3.4 m/s
07:00 6.7° 1008.0 hPa 5.3 m/s 48.6 mm 6.8° 1005.7 hPa 8.3 m/s 228.9 mm 6.2° 1008.6 hPa 4.2 m/s 0.1 mm 8.6° 1007.7 hPa 5.3 m/s 0.0 mm 5.9° 1009.2 hPa 5.3 m/s 6.0° 1008.1 hPa 3.3 m/s
10:00 7.1° 1009.5 hPa 4.7 m/s 52.8 mm 7.8° 1005.8 hPa 8.1 m/s 251.9 mm 7.1° 1009.9 hPa 3.4 m/s 0.1 mm 6.1° 1010.4 hPa 4.7 m/s 6.0° 1009.2 hPa 3.1 m/s
13:00 7.8° 1009.6 hPa 4.8 m/s 46.2 mm 8.3° 1008.1 hPa 6.6 m/s 273.8 mm 8.3° 1009.6 hPa 4.6 m/s 0.7 mm 7.1° 1010.8 hPa 4.9 m/s 7.1° 1009.9 hPa 3.9 m/s
16:00 7.6° 1009.0 hPa 3.9 m/s 42.1 mm 8.2° 1007.4 hPa 6.4 m/s 278.2 mm 7.8° 1008.7 hPa 1.2 m/s 2.4 mm 6.6° 1010.9 hPa 4.1 m/s 7.1° 1009.2 hPa 3.6 m/s
19:00 6.4° 1009.6 hPa 2.5 m/s 48.1 mm 7.0° 1008.2 hPa 5.1 m/s 284.6 mm 6.8° 1008.6 hPa 0.6 m/s 1.9 mm 6.1° 1010.7 hPa 2.6 m/s 5.2° 1010.3 hPa 2.2 m/s
22:00 6.3° 1009.5 hPa 2.3 m/s 44.8 mm 6.8° 1008.8 hPa 4.8 m/s 295.5 mm 6.6° 1008.0 hPa 0.8 m/s 6.1 mm 6.3° 1009.7 hPa 2.4 m/s 6.2° 1010.9 hPa 2.0 m/s
 08:44     17:47    Daglengte: 9:03 Maandag 07 Dec
01:00 5.8° 1007.5 hPa 2.1 m/s 58.8 mm 6.1° 1009.0 hPa 6.1 m/s 302.7 mm 7.0° 1006.7 hPa 0.9 m/s 8.9 mm 5.7° 1007.2 hPa 2.0 m/s 6.4° 1010.3 hPa 2.2 m/s
04:00 7.0° 1006.2 hPa 2.9 m/s 66.9 mm 6.6° 1008.7 hPa 6.0 m/s 303.7 mm 7.0° 1006.0 hPa 0.3 m/s 12.4 mm 8.2° 1005.1 hPa 3.2 m/s 6.4° 1008.7 hPa 2.0 m/s
07:00 8.7° 1005.2 hPa 3.4 m/s 51.3 mm 7.4° 1007.9 hPa 6.0 m/s 303.7 mm 9.3° 1005.8 hPa 2.2 m/s 3.1 mm 9.3° 1004.1 hPa 3.6 m/s 6.7° 1007.3 hPa 2.1 m/s
10:00 9.1° 1005.7 hPa 5.1 m/s 103.9 mm 9.1° 1006.3 hPa 9.0 m/s 304.3 mm 9.8° 1007.7 hPa 2.4 m/s 3.8 mm 8.9° 1004.7 hPa 5.1 m/s 8.6° 1007.1 hPa 4.6 m/s
13:00 9.4° 1006.6 hPa 6.8 m/s 108.2 mm 10.6° 1008.2 hPa 8.3 m/s 312.4 mm 10.2° 1007.8 hPa 6.8 m/s 6.0 mm 8.4° 1005.2 hPa 6.6 m/s 8.8° 1008.0 hPa 4.9 m/s
16:00 7.4° 1005.0 hPa 5.5 m/s 82.8 mm 7.3° 1004.7 hPa 5.7 m/s 8.3° 1008.3 hPa 3.4 m/s 82.8 mm
19:00 6.8° 1004.9 hPa 5.0 m/s 88.0 mm 6.7° 1004.5 hPa 5.2 m/s 7.8° 1009.1 hPa 3.0 m/s 88.0 mm
22:00 7.0° 1004.4 hPa 5.6 m/s 90.4 mm 7.0° 1004.0 hPa 5.9 m/s 7.3° 1008.3 hPa 2.8 m/s 90.4 mm
 08:45     17:47    Daglengte: 9:02 Dinsdag 08 Dec
01:00 7.3° 1003.9 hPa 6.4 m/s 93.3 mm 7.3° 1003.6 hPa 6.6 m/s 7.9° 1007.4 hPa 3.6 m/s 93.3 mm
04:00 7.3° 1006.6 hPa 5.9 m/s 96.3 mm 7.4° 1006.5 hPa 6.0 m/s 6.6° 1008.0 hPa 4.8 m/s 96.4 mm
07:00 7.4° 1009.4 hPa 5.2 m/s 99.9 mm 7.5° 1009.4 hPa 5.4 m/s 5.8° 1008.9 hPa 3.3 m/s 99.9 mm
10:00 7.3° 1011.5 hPa 4.1 m/s 104.2 mm 7.3° 1011.6 hPa 4.2 m/s 6.2° 1009.9 hPa 3.3 m/s 104.2 mm
13:00 7.2° 1013.5 hPa 3.1 m/s 107.4 mm 7.2° 1013.8 hPa 3.0 m/s 6.6° 1010.3 hPa 3.8 m/s 107.4 mm
16:00 6.9° 1014.5 hPa 3.9 m/s 109.0 mm 6.8° 1014.9 hPa 3.8 m/s 7.2° 1009.7 hPa 5.0 m/s 109.0 mm
19:00 6.5° 1015.6 hPa 4.5 m/s 111.3 mm 6.5° 1016.0 hPa 4.6 m/s 7.0° 1011.3 hPa 3.7 m/s 111.3 mm
22:00 6.2° 1017.2 hPa 3.7 m/s 115.5 mm 6.2° 1017.6 hPa 3.8 m/s 6.9° 1012.8 hPa 2.7 m/s 115.5 mm
 08:46     17:47    Daglengte: 9:01 Woensdag 09 Dec
01:00 5.8° 1018.8 hPa 2.9 m/s 116.9 mm 5.8° 1019.2 hPa 2.9 m/s 6.1° 1014.5 hPa 2.4 m/s 116.9 mm
04:00 5.3° 1019.1 hPa 2.3 m/s 117.8 mm 5.2° 1019.5 hPa 2.4 m/s 5.9° 1015.3 hPa 1.7 m/s 117.8 mm
07:00 4.6° 1019.4 hPa 1.8 m/s 118.2 mm 4.6° 1019.7 hPa 1.8 m/s 5.0° 1015.7 hPa 2.4 m/s 118.2 mm
10:00 6.3° 1020.2 hPa 2.5 m/s 118.2 mm 6.5° 1020.5 hPa 2.5 m/s 3.7° 1016.6 hPa 2.6 m/s 118.2 mm
13:00 8.4° 1020.8 hPa 3.1 m/s 118.2 mm 8.4° 1021.3 hPa 3.2 m/s 9.0° 1015.6 hPa 1.8 m/s 118.2 mm
16:00 7.0° 1020.2 hPa 2.3 m/s 118.2 mm 6.8° 1020.9 hPa 2.4 m/s 9.4° 1012.8 hPa 1.7 m/s 118.2 mm
19:00 5.2° 1019.7 hPa 1.7 m/s 119.2 mm 5.1° 1020.5 hPa 1.6 m/s 6.5° 1011.4 hPa 2.6 m/s 119.2 mm
22:00 5.6° 1018.5 hPa 2.2 m/s 120.3 mm 5.4° 1019.4 hPa 2.2 m/s 7.9° 1009.3 hPa 2.9 m/s 120.3 mm
 08:47     17:47    Daglengte: 9:00 Donderdag 10 Dec
01:00 6.0° 1017.1 hPa 2.7 m/s 120.8 mm 5.7° 1018.2 hPa 2.7 m/s 8.9° 1005.3 hPa 3.0 m/s 120.8 mm
04:00 7.0° 1015.3 hPa 2.7 m/s 124.7 mm 6.8° 1016.5 hPa 2.7 m/s 9.4° 1001.9 hPa 2.7 m/s 124.7 mm
07:00 7.9° 1013.7 hPa 2.6 m/s 129.9 mm 7.8° 1014.9 hPa 2.6 m/s 9.3° 1000.6 hPa 2.5 m/s 129.9 mm
10:00 9.3° 1013.9 hPa 2.5 m/s 131.3 mm 9.3° 1015.0 hPa 2.5 m/s 9.0° 1001.3 hPa 2.4 m/s 131.3 mm
13:00 10.9° 1014.1 hPa 2.5 m/s 132.9 mm 10.9° 1015.2 hPa 2.5 m/s 11.0° 1001.8 hPa 3.0 m/s 132.9 mm
16:00 11.0° 1013.5 hPa 2.8 m/s 133.6 mm 11.1° 1014.7 hPa 2.9 m/s 11.0° 1000.7 hPa 1.9 m/s 133.6 mm
19:00 11.0° 1013.1 hPa 3.1 m/s 133.7 mm 11.2° 1014.1 hPa 3.2 m/s 8.7° 1001.7 hPa 1.6 m/s 133.7 mm
22:00 10.8° 1012.8 hPa 2.6 m/s 134.2 mm 10.9° 1013.8 hPa 2.7 m/s 9.0° 1001.4 hPa 1.3 m/s 134.2 mm
 08:48     17:47    Daglengte: 8:59 Vrijdag 11 Dec
01:00 10.6° 1012.4 hPa 2.1 m/s 134.5 mm 10.7° 1013.5 hPa 2.2 m/s 9.3° 1000.5 hPa 1.5 m/s 134.5 mm
04:00 11.5° 1012.6 hPa 2.2 m/s 135.4 mm 11.6° 1013.8 hPa 2.2 m/s 10.1° 999.1 hPa 1.9 m/s 135.4 mm
07:00 12.4° 1012.8 hPa 2.3 m/s 141.0 mm 12.5° 1014.1 hPa 2.3 m/s 11.1° 998.8 hPa 2.0 m/s 141.0 mm
10:00 14.0° 1013.3 hPa 1.4 m/s 143.4 mm 14.1° 1014.5 hPa 1.2 m/s 12.6° 1000.0 hPa 2.5 m/s 143.4 mm
13:00 15.6° 1013.8 hPa 0.5 m/s 144.4 mm 15.7° 1014.9 hPa 0.2 m/s 14.1° 1002.3 hPa 3.9 m/s 144.4 mm
19:00 12.7° 1013.7 hPa 2.0 m/s 144.5 mm 13.0° 1014.5 hPa 1.9 m/s 9.3° 1005.4 hPa 2.9 m/s 144.5 mm
 08:48     17:47    Daglengte: 8:59 Zaterdag 12 Dec
01:00 7.0° 1014.6 hPa 2.5 m/s 145.6 mm 6.7° 1015.5 hPa 2.5 m/s 10.8° 1004.9 hPa 2.6 m/s 145.6 mm
07:00 8.3° 1014.3 hPa 2.4 m/s 148.4 mm 8.1° 1015.1 hPa 2.4 m/s 10.5° 1005.4 hPa 2.5 m/s 148.4 mm
13:00 13.0° 1015.5 hPa 2.4 m/s 156.0 mm 13.2° 1016.5 hPa 2.5 m/s 11.0° 1004.6 hPa 1.9 m/s 156.0 mm
19:00 10.8° 1015.1 hPa 2.8 m/s 168.6 mm 10.8° 1016.2 hPa 2.9 m/s 10.6° 1003.3 hPa 1.9 m/s 168.6 mm
 08:49     17:47    Daglengte: 8:58 Zondag 13 Dec
01:00 8.8° 1018.0 hPa 0.4 m/s 176.8 mm 8.7° 1019.0 hPa 0.3 m/s 10.2° 1007.2 hPa 2.0 m/s 176.8 mm
07:00 5.5° 1017.7 hPa 3.4 m/s 177.1 mm 5.4° 1018.2 hPa 3.4 m/s 7.1° 1012.3 hPa 3.0 m/s 177.1 mm
13:00 13.0° 1019.7 hPa 0.7 m/s 177.2 mm 13.1° 1020.1 hPa 0.6 m/s 12.4° 1015.5 hPa 1.8 m/s 177.2 mm
19:00 11.2° 1017.9 hPa 4.0 m/s 177.2 mm 11.6° 1018.1 hPa 4.1 m/s 6.3° 1016.1 hPa 2.5 m/s 177.2 mm
 08:50     17:48    Daglengte: 8:58 Maandag 14 Dec
01:00 5.6° 1016.3 hPa 2.9 m/s 177.2 mm 5.6° 1016.3 hPa 2.9 m/s 177.2 mm
07:00 8.9° 1013.7 hPa 2.9 m/s 177.9 mm 8.9° 1013.7 hPa 2.9 m/s 177.9 mm
13:00 12.2° 1019.0 hPa 1.4 m/s 0.8 mm
19:00 10.1° 1020.1 hPa 1.2 m/s 0.7 mm
 08:51     17:48    Daglengte: 8:57 Dinsdag 15 Dec
01:00 9.1° 1021.9 hPa 1.7 m/s 1.3 mm
07:00 8.7° 1022.1 hPa 1.6 m/s 1.1 mm
13:00 12.0° 1022.8 hPa 1.2 m/s 0.9 mm
19:00 10.0° 1022.9 hPa 1.2 m/s 0.8 mm
 08:51     17:48    Daglengte: 8:57 Woensdag 16 Dec
01:00 9.2° 1023.7 hPa 1.8 m/s 0.9 mm
07:00 8.9° 1024.0 hPa 1.9 m/s 1.2 mm
13:00 11.5° 1025.7 hPa 1.4 m/s 1.3 mm
19:00 9.2° 1026.5 hPa 0.4 m/s 0.8 mm
 08:52     17:49    Daglengte: 8:57 Donderdag 17 Dec
01:00 8.5° 1027.1 hPa 1.1 m/s 0.6 mm
07:00 8.5° 1025.8 hPa 1.0 m/s 0.7 mm
13:00 11.3° 1025.4 hPa 0.4 m/s 1.5 mm
19:00 9.6° 1025.3 hPa 0.4 m/s 1.5 mm
 08:53     17:49    Daglengte: 8:56 Vrijdag 18 Dec
01:00 8.4° 1026.5 hPa 0.7 m/s 0.4 mm
07:00 8.0° 1025.6 hPa 0.9 m/s 0.9 mm
13:00 10.8° 1025.1 hPa 0.3 m/s 1.4 mm
19:00 8.8° 1024.7 hPa 0.3 m/s 0.8 mm
 08:53     17:49    Daglengte: 8:56 Zaterdag 19 Dec
01:00 7.8° 1025.1 hPa 0.8 m/s 0.5 mm
07:00 7.4° 1023.9 hPa 1.0 m/s 0.5 mm
13:00 10.9° 1023.4 hPa 0.5 m/s 0.8 mm
FMI Hirlam - 7.5 km EWN WRFDA - 12 km DWD ICON - 7 km GFS - 25 km Basiskaart






























































Updatetijd (Europe/Amsterdam) Resolutie Lengte Stap
FMI Hirlam 13:00, 19:00, 01:00, 07:00 7.5 km 49h 1h
EWN WRFDA 09:30, 15:30, 21:30, 03:30 12 km 73h 1h
DWD ICON 10:45, 16:45, 22:45, 04:45 7 km 75h 1h
GFS 13:00, 19:00, 01:00, 07:00 25 km 237h 3h
30+ mm
25-30 mm
20-25 mm
15-20 mm
10-15 mm
6-10 mm
4-6 mm
2-4 mm
1-2 mm
0.5-1 mm
0.2-0.5 mm
0.1-0.2 mm
30+ mm
25-30 mm
20-25 mm
15-20 mm
10-15 mm
6-10 mm
4-6 mm
2-4 mm
1-2 mm
0.5-1 mm
0.2-0.5 mm
0.1-0.2 mm
Sneeuwval
Natte sneeuw
Hagel
Vorst
30+ mm
25-30 mm
20-25 mm
15-20 mm
10-15 mm
6-10 mm
4-6 mm
2-4 mm
1-2 mm
0.5-1 mm
0.2-0.5 mm
0.1-0.2 mm
Sneeuwval
Natte sneeuw
Hagel
Vorst
Onweer
50 mm
40 mm
30 mm
26 mm
22 mm
18 mm
14 mm
10 mm
9 mm
8 mm
7 mm
6 mm
5 mm
4.5 mm
4 mm
3.5 mm
3 mm
2.5 mm
2 mm
1.5 mm
1 mm
0.8 mm
0.6 mm
0.4 mm
0.2 mm
0.05 mm
35°
30°
25°
20°
15°
10°
-5°
-10°
-15°
-20°
-25°
-30°
-35°
33> m/s
29 m/s
25 m/s
21 m/s
17 m/s
14 m/s
11 m/s
8 m/s
5 m/s
3 m/s
0 m/s
2600 J/kg
2400 J/kg
2200 J/kg
2000 J/kg
1800 J/kg
1600 J/kg
1400 J/kg
1200 J/kg
1000 J/kg
800 J/kg
600 J/kg
400 J/kg
200 J/kg
70 dBZ
65 dBZ
60 dBZ
55 dBZ
50 dBZ
45 dBZ
40 dBZ
35 dBZ
30 dBZ
25 dBZ
20 dBZ
15 dBZ
10 dBZ
5 dBZ
-1 K
-2 K
-3 K
-4 K
-5 K
-6 K
-7 K
-8 K
-9 K
950 m²/s²
900 m²/s²
850 m²/s²
800 m²/s²
750 m²/s²
700 m²/s²
650 m²/s²
600 m²/s²
550 m²/s²
500 m²/s²
450 m²/s²
400 m²/s²
350 m²/s²
300 m²/s²
250 m²/s²
200 m²/s²
150 m²/s²
100 m²/s²
46 m/s
44 m/s
42 m/s
40 m/s
38 m/s
36 m/s
34 m/s
32 m/s
30 m/s
28 m/s